Temperature
20 20 19 19 18 18 18 17 17 17 17 17 16 16 16 16 16 16 16 16 15 15 15 15 15 15 15 15 15 15 15 15 15 15 15 14 14 14 14 14 14 14 14
20 19 19 18 18 18 17 17 17 17 17 16 16 16 16 15 15 15 15 16 15 15 15 15 15 15 15 15 15 14 14 15 15 15 15 14 14 14 14 14 14 14 14
20 19 19 18 18 17 17 17 17 17 16 16 16 16 16 15 15 15 15 15 15 15 15 15 15 15 15 15 14 14 14 14 15 15 15 15 14 14 14 14 14 14 14
20 19 19 18 17 17 17 17 17 16 16 16 16 16 15 15 15 15 15 15 15 15 15 15 15 15 15 15 14 14 14 14 14 14 15 15 15 14 14 14 14 14 14
20 19 18 18 17 17 17 17 17 16 16 16 16 15 15 15 15 15 15 15 15 15 15 15 15 15 15 15 14 14 14 14 14 14 14 15 15 15 14 14 14 14 13
20 19 18 18 17 17 17 17 16 16 16 16 16 15 15 15 15 15 15 15 15 15 15 15 15 14 14 14 14 14 14 14 14 14 14 14 14 14 14 14 14 13 13
20 19 18 17 17 17 16 16 16 16 16 16 15 15 15 15 15 15 15 14 14 14 14 14 14 14 14 14 14 14 14 14 14 14 14 14 14 14 14 14 14 14 13
19 19 18 17 17 17 16 16 16 16 16 15 15 15 15 15 15 15 14 14 14 14 14 14 14 14 14 14 14 14 14 14 14 14 14 14 14 14 14 14 14 14 13
19 18 18 17 17 16 16 16 16 15 15 15 15 15 15 15 15 14 14 14 14 14 14 14 14 14 14 14 14 14 14 14 14 14 14 14 14 14 14 14 14 14 13
19 18 18 17 17 16 16 16 16 15 15 15 15 15 15 15 14 14 14 14 14 14 14 14 14 14 14 14 14 14 14 14 14 14 14 14 14 14 14 14 14 14 14
19 18 17 17 16 16 16 16 15 15 15 15 15 15 14 14 14 14 14 14 14 14 14 14 14 14 13 13 14 13 13 13 13 13 13 13 13 13 13 13 13 14 14
18 18 17 17 16 16 16 15 15 15 15 15 15 14 14 14 14 14 14 14 14 14 14 14 13 13 13 13 13 13 13 13 13 13 13 13 13 13 13 13 13 13 13
18 17 17 16 16 16 15 15 15 15 15 15 14 14 14 14 14 14 14 13 13 13 13 13 13 13 13 13 13 13 13 13 13 13 13 13 13 13 13 13 13 13 13
18 17 16 16 16 15 15 15 15 15 14 14 14 14 14 14 14 13 13 13 13 13 13 13 13 13 13 13 13 13 13 13 13 13 13 12 12 12 13 13 13 12 12
17 17 16 16 15 15 14 14 14 14 14 14 14 14 14 13 13 13 13 13 13 13 13 13 13 13 13 13 13 13 12 12 12 12 12 12 12 12 12 12 12 12 12
17 16 16 15 15 14 14 14 14 14 13 13 13 13 13 13 13 13 13 13 13 13 13 13 13 13 13 13 13 12 12 12 12 12 12 12 12 12 12 12 12 12 12
16 16 15 15 14 14 14 13 13 13 13 13 13 13 13 13 13 12 12 12 12 12 12 12 12 12 12 12 12 12 12 12 12 11 11 11 12 12 12 12 12 12 11
16 15 15 14 14 14 13 13 13 13 12 12 12 12 12 12 12 12 12 12 12 12 12 12 12 12 12 12 12 12 12 11 11 11 11 11 11 11 11 11 11 11 11
15 15 14 14 14 13 13 13 12 12 12 12 12 12 12 12 11 11 11 11 11 11 11 11 11 11 11 11 11 11 11 11 11 11 11 11 11 11 11 11 11 11 11
15 14 14 13 13 13 12 12 12 12 12 12 11 11 11 11 11 11 11 11 11 10 11 11 10 10 10 11 11 11 11 10 10 10 10 10 10 10 10 10 10 10 10
14 13 13 13 12 12 12 12 12 12 11 11 11 11 11 11 10 10 10 10 10 10 10 10 10 10 10 10 10 10 10 10 10 10 10 10 10 10 10 10 10 10 10
13 13 12 12 12 12 11 11 11 11 11 11 11 10 10 10 10 10 10 10 9 9 9 9 9 9 9 9 10 10 10 9 9 9 9 9 9 9 9 9 9 9 9
12 12 12 11 11 11 11 11 10 10 10 10 10 10 10 10 10 9 9 9 9 9 9 9 9 9 9 9 9 9 9 9 9 9 9 9 9 9 9 9 9 9 9
12 11 11 11 10 10 10 10 10 10 10 10 10 10 10 9 9 9 9 9 9 9 8 8 8 8 8 8 9 9 9 9 8 8 8 8 8 8 8 8 8 8 8
11 11 10 10 10 10 10 9 9 9 9 9 9 9 9 9 9 9 9 9 9 8 8 8 8 8 8 8 8 8 8 8 8 8 8 8 8 8 8 7 8 8 7
10 10 10 10 9 9 9 9 9 9 9 9 9 9 8 8 8 8 8 8 8 8 8 8 8 8 8 8 8 8 8 8 8 7 7 7 7 7 7 7 7 7 7
Wind_Speed
6 6 5 5 5 4 4 4 3 4 4 3 2 2 2 2 2 2 4 5 4 4 3 3 3 3 2 2 2 2 2 1 2 2 2 2 2 3 2 3 3 3 4
7 7 5 5 4 4 3 3 3 3 4 3 2 2 2 2 2 2 3 4 4 3 3 2 2 2 2 2 2 1 1 0 0 1 1 1 1 2 2 1 2 2 3
7 7 6 5 4 4 3 3 3 3 3 3 3 2 2 2 2 1 1 2 3 3 2 2 2 2 2 2 1 1 1 1 1 1 1 1 1 0 1 1 2 2 2
6 6 5 5 4 3 3 3 3 3 3 4 3 3 2 2 1 1 1 1 1 2 2 2 2 2 2 2 1 1 1 1 1 1 1 1 2 2 0 1 1 2 2
6 6 5 5 4 4 2 2 3 2 2 3 4 3 2 1 1 1 2 1 1 1 1 1 1 1 1 2 1 1 1 1 0 0 1 1 1 1 2 1 0 1 1
7 6 5 5 4 4 3 2 3 2 2 2 3 3 2 1 2 2 1 0 0 0 1 1 1 0 1 1 1 1 1 0 1 1 0 0 0 0 1 1 1 1 1
7 6 5 5 4 4 3 3 3 3 2 2 2 3 2 2 2 2 1 1 1 0 1 0 0 0 0 1 1 0 0 1 1 0 0 0 1 0 1 1 1 1 1
6 6 6 5 4 4 4 3 4 3 3 3 2 2 2 1 1 2 1 2 1 1 1 0 1 1 0 0 1 0 1 1 1 1 1 1 1 0 1 1 2 1 0
5 6 6 5 4 4 4 3 4 4 4 3 3 3 2 2 1 1 1 1 1 1 1 2 2 1 1 0 1 0 1 1 0 0 1 1 0 1 1 1 2 3 2
4 5 6 5 4 4 4 4 4 4 4 4 3 2 2 2 2 1 1 1 1 1 1 1 2 1 1 1 1 0 1 1 0 0 0 0 1 1 1 1 0 1 2
3 4 4 4 4 3 3 3 3 3 3 4 3 3 2 3 3 2 1 1 0 0 1 1 1 1 1 1 1 1 1 1 1 1 1 1 1 1 1 1 1 0 2
3 3 4 4 3 3 2 2 2 2 3 3 3 3 3 3 3 2 2 1 1 1 2 2 2 1 1 1 1 2 2 1 1 1 1 1 1 1 1 1 1 1 1
3 3 3 3 3 2 2 2 2 2 2 2 2 2 2 2 2 2 2 1 1 2 1 2 2 2 1 1 1 1 2 1 1 0 1 1 1 1 1 1 1 1 1
3 3 3 2 2 2 2 1 1 2 2 2 2 2 2 1 1 1 1 1 1 1 2 2 2 2 2 1 1 1 1 1 1 1 0 0 1 1 1 1 1 1 1
3 3 3 2 2 2 1 1 1 1 1 1 2 2 1 1 1 1 1 0 1 1 1 0 0 1 1 0 0 1 1 1 1 0 1 1 2 2 1 1 1 1 1
2 2 2 2 2 2 2 1 1 0 1 2 2 1 2 1 1 1 0 0 1 1 1 1 1 1 1 3 3 2 1 0 0 0 0 1 2 2 2 2 3 2 2
0 1 2 1 2 3 2 2 1 1 1 2 2 2 2 2 2 1 0 1 1 1 1 1 1 1 2 3 3 3 1 1 1 0 0 1 1 2 1 1 2 2 1
1 0 0 0 0 1 1 2 2 1 1 1 2 2 2 2 2 1 1 1 0 0 0 1 1 2 1 2 2 2 1 0 0 0 0 1 1 1 2 1 1 1 1
1 1 0 1 1 0 1 1 2 2 1 1 2 2 2 2 2 2 1 1 1 1 1 1 1 2 1 2 2 1 1 0 0 0 1 1 1 2 3 2 1 1 0
2 1 1 1 1 1 1 2 2 2 2 1 1 2 2 2 2 2 2 1 1 1 1 2 1 2 2 2 2 1 1 1 1 0 0 2 2 2 2 1 1 1 1
2 2 2 1 1 1 1 1 1 1 1 1 1 2 2 2 2 1 1 1 1 1 1 2 2 2 2 3 3 2 1 1 1 1 1 1 1 1 0 1 1 1 1
2 2 1 1 1 1 1 0 0 1 1 1 1 1 2 2 1 1 1 1 1 1 2 2 2 1 1 2 2 3 2 1 1 1 1 1 1 1 1 0 1 1 1
1 1 1 1 0 0 1 0 0 1 1 1 1 2 2 1 1 1 1 1 1 1 2 1 2 2 1 1 1 2 2 2 1 1 1 1 2 1 1 1 1 0 0
1 1 1 0 0 0 0 0 0 1 1 1 1 1 1 1 1 1 1 1 2 2 2 2 2 2 1 1 1 1 2 2 1 1 1 2 2 1 1 0 1 1 1
0 1 1 1 0 1 1 1 1 0 1 1 1 1 1 1 0 0 1 2 2 2 3 3 2 2 2 2 1 2 2 2 2 1 1 1 1 1 1 1 1 1 1
0 1 1 1 0 1 1 1 1 1 1 1 1 1 1 1 1 1 1 1 2 2 3 2 2 2 2 1 1 2 2 2 2 1 1 2 2 2 2 2 2 2 2
Wind_Direction
132 118 115 108 103 90 89 90 81 95 93 82 79 80 75 71 69 57 69 74 68 73 79 82 84 86 98 111 104 98 102 130 139 100 59 39 76 94 63 63 80 81 101
132 126 124 118 112 103 94 100 98 90 102 104 103 111 115 109 96 56 62 64 67 75 81 83 91 86 88 87 92 102 93 313 255 129 131 102 24 30 62 71 81 75 67
140 141 140 126 129 124 118 108 106 103 104 112 101 89 85 93 92 97 74 56 65 79 91 93 99 121 121 125 145 148 139 252 308 54 124 143 157 71 358 55 89 93 75
133 135 133 135 136 126 121 121 115 113 118 115 107 108 113 117 132 128 124 111 87 82 91 101 108 104 103 129 175 140 145 138 301 335 340 92 133 139 118 347 59 95 98
138 137 137 139 135 121 111 111 114 103 108 125 121 127 112 129 111 94 120 135 128 96 94 100 116 109 125 153 137 98 102 146 183 270 329 6 355 169 145 181 212 67 92
137 133 130 128 126 127 130 121 123 123 110 120 135 136 135 142 115 104 106 131 102 110 134 155 178 130 106 109 105 115 142 213 250 260 238 172 253 288 144 176 180 138 130
143 140 136 139 136 136 146 153 142 137 144 148 147 155 163 174 168 149 155 173 180 176 206 72 133 336 80 110 126 109 181 235 233 266 278 256 253 275 89 124 156 133 147
139 142 146 148 148 152 159 167 160 159 161 168 171 179 171 160 170 173 171 182 184 188 181 192 213 206 128 116 118 140 229 263 212 209 206 274 283 85 99 129 131 126 115
137 145 149 151 155 161 165 175 174 169 171 185 192 191 170 156 167 187 163 161 187 203 177 199 208 171 139 107 69 262 284 303 331 270 238 245 219 136 122 130 144 151 163
143 147 150 154 160 160 167 177 186 179 176 184 193 189 181 176 182 177 169 162 188 196 185 193 200 181 176 171 156 296 294 293 228 278 322 357 19 74 91 120 160 143 153
139 139 141 148 151 149 158 173 183 182 173 185 188 193 184 175 172 170 188 181 165 179 176 213 189 169 203 190 150 218 263 286 266 234 191 154 113 113 99 81 79 79 120
126 121 131 138 147 155 156 167 173 174 178 189 187 188 175 177 175 174 180 200 210 235 210 192 201 179 193 197 176 224 255 265 289 276 224 187 160 152 148 172 175 171 139
131 133 127 135 149 153 157 176 167 163 166 180 174 171 184 183 178 174 179 209 220 224 234 205 189 174 176 192 196 215 249 237 264 300 283 230 158 155 167 179 181 178 134
146 139 137 150 157 159 167 174 156 152 154 154 163 178 189 177 168 174 164 202 255 235 247 228 179 170 167 188 194 206 231 238 246 244 287 359 127 182 180 186 177 147 131
156 156 162 169 165 158 157 125 115 115 143 149 165 182 170 138 123 111 111 270 301 285 295 317 144 129 135 171 186 223 235 229 238 303 71 71 72 55 104 112 134 132 145
170 170 182 180 185 192 179 168 132 166 171 150 144 143 141 134 130 125 120 16 327 314 338 326 91 75 48 36 33 41 325 66 103 182 111 116 88 65 86 91 115 127 150
102 184 192 199 212 201 186 169 165 184 177 152 150 140 140 137 127 127 76 286 261 306 286 291 154 118 84 69 46 25 29 54 44 88 44 347 46 71 76 116 118 114 105
19 30 111 149 257 163 158 149 151 173 158 134 139 146 149 152 150 147 169 284 295 297 299 296 186 146 102 97 68 21 335 206 60 63 100 102 89 39 31 165 141 143 192
42 52 149 130 121 134 138 160 176 181 170 171 153 145 150 149 149 167 200 236 233 250 267 269 213 152 125 109 87 68 275 237 248 39 42 82 115 44 40 60 140 153 234
69 66 63 66 86 91 124 177 189 187 193 189 165 155 159 160 170 198 218 221 219 245 249 257 223 178 163 149 139 150 214 210 191 185 82 50 53 71 58 63 93 177 220
52 54 66 51 32 81 129 205 187 194 192 159 159 166 180 185 192 216 244 219 212 243 244 242 235 204 169 174 178 177 188 209 197 203 206 159 116 117 22 107 119 244 244
60 62 68 70 60 73 139 217 252 129 115 133 163 181 184 198 176 177 246 245 217 237 241 239 237 237 189 167 198 204 224 284 208 221 212 193 172 199 230 159 318 324 13
86 81 76 77 97 102 105 227 271 117 131 184 213 213 205 199 176 183 214 235 224 231 240 230 234 251 248 208 209 217 244 291 301 268 221 169 155 161 169 278 330 344 111
133 114 108 207 192 53 55 277 12 124 184 212 221 226 208 208 201 192 206 216 218 221 226 230 235 240 225 223 213 211 236 271 302 357 53 95 124 116 129 16 281 258 232
169 151 185 218 177 56 52 11 349 81 231 230 229 236 199 209 227 213 243 224 230 210 213 221 218 225 236 253 241 183 197 203 211 129 85 90 126 157 203 227 228 241 256
206 173 160 152 163 98 75 354 302 253 229 256 276 271 237 223 205 235 287 287 227 202 207 210 207 234 228 255 180 207 209 196 179 147 180 194 196 206 211 216 227 229 234
Height
1513 1515 1516 1517 1518 1519 1520 1521 1521 1522 1523 1524 1524 1525 1526 1527 1527 1528 1528 1528 1529 1530 1530 1530 1530 1531 1531 1532 1533 1533 1533 1534 1534 1535 1535 1536 1536 1535 1536 1536 1536 1536 1536
1512 1514 1516 1517 1518 1519 1520 1521 1521 1522 1523 1523 1524 1525 1526 1527 1527 1528 1528 1529 1529 1529 1530 1530 1531 1531 1532 1532 1533 1533 1534 1534 1535 1535 1535 1536 1537 1536 1536 1536 1536 1536 1536
1511 1513 1515 1517 1518 1519 1520 1520 1521 1522 1522 1523 1524 1525 1526 1526 1527 1527 1528 1528 1529 1529 1530 1530 1531 1531 1531 1532 1533 1533 1533 1534 1535 1535 1536 1536 1536 1536 1537 1537 1537 1536 1536
1510 1512 1514 1516 1517 1518 1519 1520 1521 1521 1522 1522 1523 1524 1525 1526 1527 1527 1528 1528 1529 1529 1530 1530 1531 1531 1531 1532 1532 1533 1533 1534 1534 1535 1535 1536 1536 1536 1537 1537 1537 1537 1536
1509 1511 1513 1515 1516 1517 1518 1519 1520 1520 1521 1522 1523 1523 1524 1525 1526 1527 1527 1528 1528 1528 1529 1529 1530 1530 1531 1531 1532 1532 1533 1533 1533 1534 1534 1535 1535 1535 1536 1536 1537 1537 1536
1507 1510 1512 1513 1515 1516 1516 1517 1518 1519 1520 1521 1522 1522 1523 1524 1525 1526 1526 1527 1527 1528 1528 1529 1529 1530 1530 1530 1531 1531 1532 1532 1533 1533 1533 1534 1534 1534 1534 1534 1535 1536 1536
1506 1508 1510 1512 1513 1514 1515 1516 1516 1517 1518 1520 1521 1521 1522 1523 1524 1525 1525 1526 1526 1527 1527 1528 1528 1529 1529 1529 1530 1530 1531 1531 1531 1532 1532 1533 1533 1533 1533 1534 1534 1535 1535
1504 1506 1508 1510 1511 1512 1513 1514 1515 1516 1517 1518 1519 1520 1521 1522 1523 1523 1524 1524 1525 1525 1526 1526 1527 1527 1528 1528 1529 1529 1529 1530 1530 1531 1531 1531 1532 1532 1532 1533 1533 1534 1535
1503 1505 1507 1508 1509 1510 1511 1512 1513 1514 1515 1517 1518 1519 1520 1520 1521 1522 1522 1523 1523 1524 1524 1525 1525 1526 1527 1527 1528 1528 1528 1528 1529 1529 1530 1530 1530 1531 1531 1532 1532 1533 1533
1502 1504 1505 1507 1508 1509 1510 1511 1512 1513 1514 1515 1516 1517 1518 1519 1519 1520 1520 1521 1521 1522 1522 1523 1523 1524 1525 1525 1526 1526 1527 1527 1527 1528 1528 1528 1529 1529 1529 1530 1531 1531 1532
1500 1502 1503 1505 1507 1508 1508 1509 1510 1511 1512 1513 1514 1515 1516 1517 1517 1518 1519 1519 1519 1520 1520 1521 1521 1522 1523 1523 1524 1525 1525 1525 1525 1526 1526 1527 1527 1528 1528 1528 1529 1530 1530
1500 1501 1502 1503 1505 1506 1507 1508 1508 1509 1510 1511 1512 1513 1514 1514 1515 1516 1516 1517 1518 1518 1519 1519 1519 1520 1521 1521 1522 1522 1523 1523 1524 1524 1524 1525 1525 1526 1526 1527 1527 1528 1528
1499 1500 1501 1502 1503 1504 1505 1506 1506 1507 1508 1509 1509 1510 1511 1512 1513 1514 1514 1515 1516 1516 1517 1517 1517 1518 1519 1519 1520 1520 1521 1521 1522 1522 1522 1523 1523 1523 1524 1524 1525 1526 1526
1497 1499 1500 1501 1502 1503 1504 1504 1504 1504 1505 1506 1507 1508 1509 1509 1510 1511 1512 1513 1513 1514 1515 1515 1515 1516 1516 1517 1518 1518 1519 1519 1520 1520 1520 1521 1521 1521 1521 1522 1523 1523 1524
1495 1497 1498 1499 1500 1501 1502 1502 1502 1503 1503 1504 1504 1505 1506 1507 1508 1508 1509 1510 1511 1512 1512 1513 1513 1514 1514 1515 1515 1516 1517 1517 1517 1518 1518 1518 1519 1519 1520 1520 1520 1521 1521
1493 1495 1496 1497 1498 1499 1499 1500 1500 1501 1501 1501 1502 1502 1503 1504 1505 1506 1506 1507 1508 1509 1510 1510 1511 1511 1511 1512 1513 1514 1514 1515 1515 1515 1516 1516 1516 1517 1517 1517 1518 1518 1519
1492 1493 1494 1495 1496 1497 1497 1498 1498 1498 1499 1499 1499 1500 1501 1501 1502 1503 1503 1504 1505 1506 1507 1507 1507 1508 1509 1510 1510 1511 1512 1512 1513 1513 1513 1513 1514 1514 1514 1514 1515 1515 1516
1490 1491 1492 1492 1493 1494 1495 1495 1496 1496 1496 1497 1497 1498 1498 1499 1499 1500 1501 1501 1502 1503 1504 1504 1505 1505 1506 1507 1508 1508 1509 1510 1510 1510 1510 1511 1511 1511 1511 1511 1512 1512 1513
1489 1490 1490 1491 1491 1492 1492 1493 1493 1494 1494 1495 1495 1496 1496 1497 1497 1498 1498 1499 1500 1500 1501 1501 1502 1502 1503 1504 1504 1505 1506 1506 1507 1507 1508 1508 1508 1508 1508 1508 1509 1509 1510
1487 1488 1488 1489 1489 1490 1490 1490 1491 1492 1492 1492 1493 1493 1494 1495 1495 1496 1496 1497 1497 1497 1498 1498 1499 1499 1500 1501 1501 1502 1503 1503 1504 1504 1504 1505 1505 1505 1505 1505 1505 1506 1507
1486 1486 1486 1487 1487 1487 1487 1488 1488 1489 1489 1490 1490 1491 1492 1492 1493 1493 1494 1494 1494 1495 1495 1495 1496 1497 1497 1498 1498 1499 1499 1500 1500 1500 1501 1501 1502 1502 1502 1502 1503 1503 1503
1484 1484 1485 1485 1485 1485 1485 1485 1485 1487 1487 1487 1487 1488 1489 1490 1490 1490 1490 1491 1491 1492 1492 1492 1493 1493 1494 1495 1495 1496 1496 1497 1497 1497 1498 1498 1499 1499 1499 1499 1500 1500 1500
1482 1482 1482 1483 1483 1483 1483 1483 1484 1484 1484 1485 1485 1486 1487 1487 1487 1487 1488 1488 1488 1488 1489 1489 1489 1490 1490 1491 1492 1492 1493 1493 1493 1494 1494 1495 1496 1496 1496 1496 1497 1497 1497
1480 1480 1480 1480 1480 1481 1481 1481 1482 1482 1482 1482 1483 1483 1484 1484 1484 1485 1485 1485 1485 1485 1485 1485 1486 1486 1487 1487 1487 1488 1489 1489 1490 1490 1491 1492 1492 1492 1493 1493 1493 1493 1494
1477 1478 1478 1478 1478 1478 1478 1479 1479 1479 1480 1480 1480 1481 1481 1481 1481 1481 1481 1481 1481 1482 1482 1482 1483 1483 1483 1484 1484 1484 1484 1485 1486 1486 1487 1487 1488 1488 1488 1489 1489 1490 1490
1475 1475 1476 1475 1476 1476 1476 1476 1476 1477 1478 1478 1478 1478 1478 1478 1477 1477 1478 1478 1479 1479 1479 1479 1480 1480 1480 1481 1481 1481 1481 1482 1482 1483 1482 1483 1484 1484 1485 1485 1485 1486 1486